Flag for Canada Weather past 2 weeks in Grande Prairie, Alberta, Canada

23 °F

Partly sunny.

Feels Like: 23 °F
Forecast: 17 / 33 °F
Wind: No wind

Location: Grande Prairie

Current Time: Nov 27, 2015 at 10:56:18 AM

Latest Report: Nov 27, 2015 at 10:00 AM

Visibility: 25 mi

Pressure: 30.32 "Hg (27.89 "Hg at 657m altitude)

Humidity: 50%

Dew point: 7 °F

Location of Grande PrairieLocation

Historic Weather in Grande Prairie — Graph


Grande Prairie temperature yesterday

Maximum temperature yesterday: 34 °F (at 7:00 PM)
Minimum temperature yesterday: 9 °F (at 7:00 AM)
Average temperature yesterday: 19 °F

Past Weeks' High & Low Weather Summary

High43 °F (Nov 21, 4:00 PM)100% (Nov 15, 11:00 AM)30.52 "Hg (Nov 15, 11:00 AM)
Low-4 °F (Nov 20, 9:00 AM)29% (Nov 27, 6:00 AM)29.28 "Hg (Nov 17, 1:00 PM)
Average22 °F72%29.96 "Hg
* Reported Nov 12 9:00 AM — Nov 27 9:00 AM, Grande Prairie, Weather by CustomWeather, © 2015

Note: Actual official high and low records may vary slightly from our data, if they occured in-between our weather recording intervals... More about our weather records


Grande Prairie weather history for previous 24 hours

Time TempWeatherWind HumidityBarometerVisibility
9:00 AM
Fri, Nov 27
25 °FPartly sunny.7 mph42%30.31 "Hg25 mi
8:00 AM30 °FPassing clouds.14 mph37%30.28 "Hg25 mi
7:00 AM36 °FPassing clouds.14 mph30%30.27 "Hg25 mi
6:00 AM34 °FPassing clouds.13 mph29%30.26 "Hg25 mi
5:00 AM19 °FPassing clouds.6 mph45%30.29 "Hg25 mi
4:00 AM18 °FPassing clouds.3 mph49%30.30 "Hg25 mi
3:00 AM14 °FPassing clouds.2 mph57%30.30 "Hg25 mi
2:00 AM27 °FClear.3 mph39%30.28 "Hg25 mi
1:00 AM27 °FClear.3 mph39%30.30 "Hg25 mi
12:00 AM27 °FClear.2 mph43%30.31 "Hg25 mi
11:00 PM
Thu, Nov 26
27 °FPassing clouds.9 mph43%30.30 "Hg25 mi
10:00 PM32 °FPassing clouds.6 mph34%30.31 "Hg25 mi
9:00 PM32 °FPassing clouds.9 mph37%30.31 "Hg25 mi
8:00 PM30 °FPassing clouds.7 mph40%30.31 "Hg25 mi
7:00 PM34 °FPassing clouds.13 mph38%30.29 "Hg25 mi
6:00 PM32 °FPassing clouds.14 mph40%30.30 "Hg25 mi
5:00 PM23 °FPassing clouds.2 mph58%30.32 "Hg25 mi
4:00 PM25 °FPartly sunny.No wind63%30.32 "Hg25 mi
3:00 PM25 °FPartly sunny.No wind63%30.34 "Hg25 mi
2:00 PM23 °FScattered clouds.No wind74%30.33 "Hg25 mi
1:00 PM21 °FPartly sunny.2 mph74%30.37 "Hg25 mi
12:00 PM16 °FPartly sunny.No wind79%30.38 "Hg25 mi
11:00 AM14 °FBroken clouds.5 mph79%30.40 "Hg25 mi
10:00 AM9 °FPartly sunny.2 mph78%30.41 "Hg25 mi
Weather by CustomWeather, © 2015

See weather overviewHow to use our weather pages